Location: ??????????
(42.1626°N, 44.1160°E)
Time: 13:28:10
(UTC+00:00)

GP-B - Pass Details

Date: 03 March 2021
Orbit: 631 x 635 km, 89.8° (Epoch: 20 April)

Event Time Altitude Azimuth Distance (km) Brightness Sun altitude
Rises 16:05:29 0° 167° (SSE) 2,914 6.3 -13.7°
Reaches altitude 10° 16:07:42 10° 164° (SSE) 2,011 5.5 -14.1°
Maximum altitude 16:12:03 60° 84° (E) 731 3.1 -14.9°
Drops below altitude 10° 16:16:26 10° 6° (N) 2,029 5.7 -15.7°
Sets 16:18:42 0° 3° (N) 2,942 6.6 -16.1°
